Retour au catalogue

ARIANE 5 R/B

ActifGTO
NORAD 28886·ROCKET BODY·🇫🇷 France

Lancé Oct 13, 2005 depuis Guiana Space Centre

Loading…

TLE

VieillissantSource: Space-Track

Époque: Sep 14, 2026, 12:20 UTC

1 28886U 05041C   26257.51450257  .00000039  00000-0  72537-3 0  9992
2 28886   7.3379 166.5966 7191074  79.9488  56.8669  2.24435523171465

Suivez ARIANE 5 R/B en temps réel avec AllMySat

Download on the App Store